Weather in Sudimir

Russia / Kaluga Oblast     53°36′08″N   34°47′22″E
temp.,
°C
wind,
m/s
gust,
m/s
humid.,
%
clouds,
%
prec.,
mm/h
press.,
hPa
HPBL,
m
17 may, tue
tue1700:00+4wnw39845 0.0 1012181
03:00+3w3108919 0.0 1011243
06:00+4wnw4128035 0.0 1011377
09:00+10nw6115615 0.0 10101468
12:00+13wnw6842100 0.0 10092490
15:00+13nw6744100 0.0 10082221
18:00+11nnw585968 0.2 1008977
21:00+6n3788100 0.5 1009270
18 may, wed
wed1800:00+6nnw4892100 0.5 1009835
03:00+6nw4896100 2.2 1009546
06:00+6n51095100 0.0 1011706
09:00+7n61184100 0.1 1013878
12:00+12n686197 0.1 10141601
15:00+15nne594663 0.1 10142210
18:00+12n6106281 0.0 1016888
21:00+8nnw4107526 0.0 1019300
19 may, thu
thu1900:00+6nnw36905 0.0 1020108
03:00+4wnw36935 0.0 1020106
06:00+5wnw39865 0.0 1020233
09:00+12wnw5961100 0.0 1019763
12:00+15nw71043100 0.0 10181615
15:00+16nw7104790 0.0 10182252
18:00+14nw61062100 0.2 10181094
21:00+9nw238171 0.3 102040
20 may, fri
fri2000:00+6nnw118831 0.0 102110
03:00+7wnw228372 0.0 102137
06:00+9wnw1282100 0.0 102078
09:00+13wsw2368100 0.0 1020521
12:00+15w3564100 0.1 10191526
15:00+12wsw2591100 1.9 1017443
18:00+12sw2688100 0.8 1015439
21:00+11s2497100 2.3 1013115
21 may, sat
sat2100:00+10se2597100 1.3 1009151
03:00+11sw4119898 2.1 1006412
06:00+12wnw5993100 0.3 1005619
09:00+14nnw4683100 0.4 1005822
12:00+15nw3472100 0.3 1005963
15:00+15ne3377100 0.8 1005540
18:00+12e478896 0.3 1005427
21:00+10ese3691100 0.4 1005335